星链-31990 (STARLINK-31990 )

导读 | 豆包AI

STARLINK-31990是美国SpaceX公司星链互联网卫星星座的一员,于北京时间2024年6月8日发射入轨。星链系统旨在为全球提供高速低延迟互联网服务,该卫星延续了星链批量部署的模式,加入了不断扩容的近地轨道卫星网络,推动全球互联覆盖能力进一步提升。

基本信息
目录编号:
60024
目录名称:
STARLINK-31990
国际标识:
2024-111J
轨道中心:
EARTH
卫星名称:
星链-31990
卫星全名:
星链-31990 (STARLINK-31990 )
卫星状态:
在轨 (已飞行645 天)
发射日期:
2024-06-08 UTC
国别 :
美国 (US)
星等 :
--
轨道信息
数据来源 国际轨道数据 AOE轨道数据
星历时间 2026-03-15T13:44:37+0800
12小时前
查看轨道信息
2026-03-10T21:00:00+0800
5天前
查看轨道信息
半长轴 6853.399km 6853.356km
偏心率 0.0001206 0.0001427
轨道倾角 53.161° 53.159°
近地点辐角 105.229° 70.166°
升交点赤经 49.813° 71.639°
平近点角 254.885° 317.647°
近地点 474.435km 474.241km
远地点 476.089km 476.197km
周期 94.106分钟 94.105分钟
每日圈数 15.301843 15.301987
详细信息
固有亮度:
5
最大亮度:
1.5
卫星平台:
Starlink v2.0 mini
覆盖范围:
全球
运营商:
太空探索技术公司
运营商所在国:
美国
制造商(研发单位):
太空探索技术公司
制造商所在国:
美国
使用方式:
暂无
卫星简介
星链(Starlink)计划是由太空探索技术公司(SpaceX)提出的一个巨型低轨卫星互联网星座项目,计划在2019年至2024年间在太空搭建由约1.2万颗卫星组成的“星链”网络,其中1584颗将部署在地球上空550千米处的近地轨道,并从2020年开始工作。该卫星仍在工作。
2D轨道图
3D轨道图
轨道高度分析图
轨道倾角分析图
轨道综合分析图
查看轨道综合分析图